Location: Arboyeti
(42.1122°N, 44.6017°E)
Time: 21:23:11
(UTC+00:00)

N. Korean satellite - Pass Details

Date: 04 October 2021
Orbit: 450 x 494 km, 97.3° (Epoch: 28 October)

Event Time Altitude Azimuth Distance (km) Brightness Sun altitude
Rises 02:25:15 0° 10° (N) 2,561 10.4 -7.6°
Reaches altitude 10° 02:27:19 10° 9° (N) 1,682 9.4 -7.2°
Maximum altitude 02:30:57 76° 283° (WNW) 511 6.5 -6.5°
Drops below altitude 10° 02:34:34 10° 198° (SSW) 1,685 9.1 -5.9°
Sets 02:36:38 0° 197° (SSW) 2,566 10.1 -5.5°
